Regional Weather Roundup
Issued by NWS Goodland, KS

Home | Current Version | Previous Version | Text Only | Print | Product List | Glossary Off
Versions: 1 2 3 4 5 6 7 8 9 10 11 12 13 14 15 16 17 18 19 20 21 22 23 24 25 26 27 28 29 30 31 32 33 34 35 36 37 38 39 40 41 42 43 44 45 46 47 48 49 50

000
ASUS43 KGLD 241059
RWRGLD

GOODLAND FORECAST AREA HOURLY WEATHER ROUNDUP
NATIONAL WEATHER SERVICE GOODLAND KS
400 AM MST MON NOV 24 2014

...OFFICIAL OBSERVATIONS...

CITY           SKY/WX    TMP DP  RH WIND       PRES   REMARKS
GOODLAND KS    CLEAR     29  13  51 W21       29.81F WCI  16
HILL CITY KS   CLEAR     32  17  54 W14       29.75S
IMPERIAL NEB   CLEAR     30  13  49 W20G28    29.76S WCI  17
MCCOOK NEB     CLEAR     34  16  47 W20G26    29.74R
AKRON CO       CLEAR     20  11  68 W16       29.81F WCI   6
BURLINGTON CO  CLEAR     23  10  57 W14       29.85S WCI  11
LIMON CO       PTCLDY    17   7  64 W15       29.84F WCI   2
$$

...UNOFFICIAL OBSERVATIONS...

CITY           SKY/WX    TMP DP  RH WIND       PRES   REMARKS
COLBY KS       CLEAR     30  18  59 W25G33    29.79S WCI  16
GOVE KS          N/A     31  32 100 MISG        N/A
NORTON KS      CLEAR     34  16  47 W17G23    29.72R
SHARON SPRINGS   N/A     24  15  68 W9          N/A
TRIBUNE KS     CLEAR     27  19  74 W15       29.88F WCI  15
TRENTON NEB      N/A     34  32  92 W18         N/A
YUMA CO          N/A     25  11  54 W14G21      N/A  WCI  13
$$



USA.gov is the U.S. government's official web portal to all federal, state and local government web resources and services.